Location: Ferchesar
(52.6477°N, 12.4298°E)
Time: 17:40:22
(UTC+01:00)

Tiros 1 - Pass Details

Date: 07 December 2021
Orbit: 629 x 664 km, 48.4° (Epoch: 22 January)

Event Time Altitude Azimuth Distance (km) Brightness Sun altitude
Rises 21:05:13 0° 269° (W) 2,935 11.2 -45.1°
Enters shadow 21:05:52 - 268° (W) 2,683 10.9 -45.2°
Reaches altitude 10° 21:07:36 10° 264° (W) 2,030 - -45.4°
Maximum altitude 21:12:03 46° 192° (SSW) 870 - -46.0°
Drops below altitude 10° 21:16:34 10° 119° (ESE) 2,049 - -46.6°
Sets 21:18:58 0° 113° (ESE) 2,964 - -46.9°
